Showing default

CALSPHERE 2, 902

Orbit data source: Space-Track

CALSPHERE 2, 902 is a payload satellite owned by NRL (US) in LEO that was launched on Tue, 06 Oct 1964 UTC via a THOR ABLESTAR launch vehicle from the Air Force Western Test Range (AFWTR). Payload-class satellites include a variety of spacecraft equipped with specific instruments for various scientific and technological missions. These include communications satellites like Starlink; space stations such as the ISS; scientific satellites like the Hubble; Earth observation satellites from companies like Planet Labs, Umbra, and HawkEye 360; GPS; miniature CubeSats for education and research; and military/defense satellites.

Loading next visibility...
Identifier
902, 1964-063E
Orbit
LEO
Country
Flag of USUS
Related business
Manufacturer
NRL
Mission
Operational spacecraft
Bus & Motor
NRL 14", Unknown motor
Mass
10 kg wet, 10 kg dry
Launch date (UTC)
1964-10-06 (61 years ago)
Launch vehicle
THOR ABLESTAR
Launch site
Air Force Western Test Range (AFWTR)
Object type
Payload
Rocket body
Debris
Shape & HBR
Unknown
Radar Cross Section
Small (<0.1 m²)

Expand to show TLE details & history
Last TLE update: 7 hours ago

TLE from 7 hours ago
0 CALSPHERE 2
1   902U 64063E   25312.80059737  .00000097  00000-0  13295-3 0  9991
2   902  90.2347  70.5896 0019773 142.7368  25.9510 13.52878324826462
Epoch: 2025-11-08T19:12Z
TLE epoch observation values (Epoch: 2025-11-08T19:12:51.612Z)
Latitude
11.16434°
Longitude
-85.80438°
Altitude
1,050.666 km
Speed
7.334 km/s
True Right ascension
16h 42m 32s
True Declination
11° 06' 06"
Sunlit
Object was in daylight at epoch
Visualization orbit readout
Latitude
Unknown
Longitude
Unknown
Altitude
Unknown
Speed
Unknown
Apparent Right ascension
Unknown
Apparent Declination
Unknown
Sunlit
N/A
Visualization observer readout
Local Sidereal Time
22:20:16
Azimuth
Unknown
Elevation
Unknown
Doppler factor
Unknown
Orbital elements
Apogee altitude
1,073.438 km
Perigee altitude
1,044.028 km
Semi-major axis
7,436.87 km
Eccentricity
0.00198
Inclination
90.2347°
RAAN
70.5896°
Arg. of periapsis
142.7368°
True anomaly
26.05037°
Mean anomaly
25.951°
Eccentric anomaly
26.00066°
Mean motion
3.38421 °/min
Orbital period
106.38 mins
BSTAR
0.00013295
Loading maneuver chart data...
Computing Atmospheric mass density...
Loading historical data...
Loading historical data...
Loading historical data...
Loading historical data...
Loading historical data...
Loading historical data...
Loading historical data...

Documentation

Showing up to 5 results
|